Regional Weather Roundup
Issued by NWS Jackson, KY

Home | Current Version | Previous Version | Text Only | Print | Product List | Glossary Off
Versions: 1 2 3 4 5 6 7 8 9 10 11 12 13 14 15 16 17 18 19 20 21 22 23 24 25 26 27 28 29 30 31 32 33 34 35 36 37 38 39 40 41 42 43 44 45 46 47 48 49 50

000
ASUS43 KJKL 161710
RWRJKL

EAST KENTUCKY HOURLY WEATHER ROUNDUP
NATIONAL WEATHER SERVICE JACKSON KY
100 PM EDT MON OCT 16 2017

NOTE: "FAIR" INDICATES FEW OR NO CLOUDS BELOW 12,000 FEET WITH
NO SIGNIFICANT WEATHER AND/OR OBSTRUCTIONS TO VISIBILITY.

* THESE REPORTS ARE NOT UNDER NWS QUALITY CONTROL AND MAY NOT
  REPORT WEATHER SUCH AS PRECIPITATION AND FOG.

KYZ079-080-083-085-087-088-110-112-115-119-120-161800
...EASTERN KENTUCKY...

CITY           SKY/WX    TMP DP  RH WIND       PRES   REMARKS
JACKSON        PTSUNNY   58  40  51 VRB5      30.30S
LONDON         MOSUNNY   58  40  51 N12       30.31S
SOMERSET*      MOSUNNY   57  41  54 N12G17    30.33S
MONTICELLO*    MOSUNNY   60  43  53 N10G23    30.34S
WILLIAMSBURG*  MOSUNNY   59  41  51 N13       30.31S
MIDDLESBORO*   PTSUNNY   58  43  57 NE10      30.29F
HARLAN APT*    PTSUNNY   55  41  58 N5        30.28F
PIKE CO APT*   CLOUDY    53  41  62 NW10G16   30.29R
BIG SANDY APT* PTSUNNY   56  41  56 N9        30.29F
MOREHEAD APT*  PTSUNNY   59  37  44 N8G17     30.33S
$$

KYZ035-036-041-042-044-050-067-078-099-161800
...CENTRAL KENTUCKY...

CITY           SKY/WX    TMP DP  RH WIND       PRES   REMARKS
MT STERLING*   MOSUNNY   57  39  51 NE8       30.34S
FLEMING/MASON* PTSUNNY   55  39  54 N8        30.34S
DANVILLE*      PTSUNNY   55  41  58 N9        30.34F
LEXINGTON      PTSUNNY   59  42  53 N8        30.33F
FRANKFORT      PTSUNNY   58  40  51 N8        30.33S
LOUISVILLE     MOSUNNY   61  42  49 N7        30.35S
LEBANON*         N/A     59  39  47 N8        30.34F
GLASGOW*       PTSUNNY   62  41  46 N8        30.34S
BOWLING GREEN  MOSUNNY   62  44  51 NE10G17   30.35S
$$

KYZ091>093-OHZ055-061-077-WVZ005-015-034-035-042-161800
...SOUTHERN OHIO/WEST VIRGINIA...

CITY           SKY/WX    TMP DP  RH WIND       PRES   REMARKS
COVINGTON      MOSUNNY   59  44  57 N10       30.33R
COLUMBUS       MOSUNNY   55  41  59 N14       30.30S
DAYTON         PTSUNNY   54  43  66 N9        30.33R
WILMINGTON     PTSUNNY   55  41  59 NW10      30.32S
HUNTINGTON     MOSUNNY   58  40  51 NW10      30.29S
CHARLESTON     PTSUNNY   57  42  57 NW8       30.27R
PINEVILLE*     CLOUDY    54  40  59 MISG      30.30S
BECKLEY        CLOUDY    51  39  63 N10       30.23S
BLUEFIELD      CLOUDY    48  37  65 NW8       30.24R
LOGAN CO APT*  CLOUDY    54  41  62 NW8       30.26F
$$

VAZ002-007-008-TNZ017-027-036-066-071-161800
...SOUTHWEST VIRGINIA/EAST TENNESSEE...

CITY           SKY/WX    TMP DP  RH WIND       PRES   REMARKS
WISE*          CLOUDY    52  43  71 NW7       30.28S
JONESVILLE*    PTSUNNY   59  41  51 NW5       30.30S
ABINGDON*      CLOUDY    54  41  62 N7        30.25S
BRISTOL        CLOUDY    55  43  63 N8        30.26S
MORRISTOWN*    CLOUDY    57  43  58 N12       30.26F
SEVIERVILLE*   CLOUDY    57  45  62 VRB7      30.27F
KNOXVILLE      PTSUNNY   60  47  61 N13       30.26S
LAFOLLETTE*    PTSUNNY   57  43  58 NE10      30.32S
OAK RIDGE      MOSUNNY   60  45  57 NE9       30.29F
CROSSVILLE     MOSUNNY   55  41  59 N12G21    30.29S
NASHVILLE      PTSUNNY   63  43  48 NE13      30.33F
$$

...KEY TO REMARKS...
VSB - VISIBILITY IN MILES
WCI - WIND CHILL INDEX
HX  - HEAT INDEX

$$



USA.gov is the U.S. government's official web portal to all federal, state and local government web resources and services.